ENST Weather Reports


Display with metric or nautical units.
time (UTC)temp
F
wind
direction
speed
MPH
gust
MPH
rain 1hr
in
rain 24hr
in
rain mn
in
humidity
%
barometer
mb
20260506213307 37 190 10.0 0.0 0.00 0.00 0.00 86 1011.0
20260506210307 37 190 5.0 0.0 0.00 0.00 0.00 93 1012.0
20260506203306 37 240 6.0 0.0 0.00 0.00 0.00 93 1011.0
20260506200306 39 190 9.0 0.0 0.00 0.00 0.00 80 1011.0
20260506193307 37 190 13.0 0.0 0.00 0.00 0.00 86 1011.0
20260506190306 37 180 13.0 0.0 0.00 0.00 0.00 86 1011.0
20260506183307 39 190 13.0 0.0 0.00 0.00 0.00 80 1011.0
20260506180307 39 190 8.0 0.0 0.00 0.00 0.00 80 1011.0
20260506173308 41 200 8.0 0.0 0.00 0.00 0.00 80 1011.0
20260506170307 39 190 10.0 0.0 0.00 0.00 0.00 86 1011.0
20260506163307 41 210 9.0 0.0 0.00 0.00 0.00 86 1010.0
20260506160307 41 210 9.0 0.0 0.00 0.00 0.00 86 1010.0
20260506153307 41 240 8.0 0.0 0.00 0.00 0.00 80 1010.0
20260506150307 37 110 2.0 0.0 0.00 0.00 0.00 93 1010.0
20260506143307 42 230 10.0 0.0 0.00 0.00 0.00 75 1010.0
20260506140307 42 230 10.0 0.0 0.00 0.00 0.00 75 1010.0
20260506133307 42 220 9.0 0.0 0.00 0.00 0.00 75 1010.0
20260506130308 42 210 10.0 0.0 0.00 0.00 0.00 70 1010.0
20260506123307 42 210 9.0 0.0 0.00 0.00 0.00 70 1009.0
20260506120308 42 200 10.0 0.0 0.00 0.00 0.00 75 1009.0
20260506113308 42 190 12.0 0.0 0.00 0.00 0.00 75 1009.0
20260506110307 41 200 12.0 0.0 0.00 0.00 0.00 80 1009.0
20260506103306 41 200 9.0 0.0 0.00 0.00 0.00 75 1009.0
20260506100308 39 220 8.0 0.0 0.00 0.00 0.00 86 1009.0
20260506093307 39 250 12.0 0.0 0.00 0.00 0.00 86 1008.0
20260506090307 37 0 2.0 0.0 0.00 0.00 0.00 86 1008.0
20260506083307 35 0 2.0 0.0 0.00 0.00 0.00 93 1008.0
20260506080306 39 0 2.0 0.0 0.00 0.00 0.00 80 1008.0
20260506073307 42 220 5.0 0.0 0.00 0.00 0.00 75 1007.0
20260506070306 41 230 7.0 0.0 0.00 0.00 0.00 80 1007.0
20260506060306 39 0 0.0 0.0 0.00 0.00 0.00 80 1007.0
20260506050306 37 190 8.0 0.0 0.00 0.00 0.00 93 1006.0
20260506043307 37 190 8.0 0.0 0.00 0.00 0.00 93 1006.0
20260506040307 37 190 8.0 0.0 0.00 0.00 0.00 93 1006.0
20260506033307 37 180 8.0 0.0 0.00 0.00 0.00 86 1006.0
20260506030307 35 180 8.0 0.0 0.00 0.00 0.00 93 1005.0
20260506023306 37 200 7.0 0.0 0.00 0.00 0.00 80 1005.0
20260506020306 37 250 9.0 0.0 0.00 0.00 0.00 80 1005.0
20260506013307 39 280 12.0 0.0 0.00 0.00 0.00 80 1005.0
20260506010307 41 290 7.0 0.0 0.00 0.00 0.00 75 1005.0
20260506003306 41 260 5.0 0.0 0.00 0.00 0.00 75 1004.0
20260506000307 39 280 7.0 0.0 0.00 0.00 0.00 75 1004.0
20260505233307 39 260 6.0 0.0 0.00 0.00 0.00 80 1004.0
20260505230306 37 270 5.0 0.0 0.00 0.00 0.00 86 1004.0
20260505223306 37 0 1.0 0.0 0.00 0.00 0.00 86 1004.0
20260505220306 39 350 6.0 0.0 0.00 0.00 0.00 75 1004.0